Home > Weather > Westerstede > Past weeks

Flag for Germany Weather for the Past 2 Weeks in Westerstede, Lower Saxony, Germany

Now
45 °F

Scattered clouds.


Feels Like: 36 °F
Forecast: 33 / 42 °F
Wind: 22 mph from West

Location: Wittmundhaven

Current Time: Feb 11, 2016 at 2:58:03 PM

Latest Report: Feb 11, 2016 at 2:20 PM


Visibility: N/A

Pressure: 29.53 "Hg

Humidity: 71%

Dew point: 36 °F

Location of WesterstedeLocation

Historic Weather in Westerstede — Graph

°F

Westerstede Temperature Yesterday

Maximum temperature yesterday: 43 °F (at 2:20 PM)
Minimum temperature yesterday: 36 °F (at 4:20 AM)
Average temperature yesterday: 40 °F

High & Low Weather Summary for the Past Weeks

 TemperatureHumidityPressure
High52 °F (Jan 27, 1:20 PM)100% (Feb 1, 12:20 AM)30.21 "Hg (Feb 1, 12:20 AM)
Low34 °F (Feb 4, 10:20 PM)62% (Feb 2, 1:20 PM)28.88 "Hg (Feb 9, 7:20 PM)
Average44 °F84%29.66 "Hg
* Reported Jan 27 1:20 PM — Feb 11 1:20 PM, Westerstede, Weather by CustomWeather, © 2016

Note: Actual official high and low records may vary slightly from our data, if they occured in-between our weather recording intervals... More about our weather records

Advertising

Westerstede Weather History for the Previous 24 Hours

 ConditionsComfort  
Time TempWeatherWind HumidityBarometerVisibility
1:20 PM
Thu, Feb 11
45 °FScattered clouds.20 mph66%29.53 "HgN/A
12:20 PM43 °FScattered clouds.15 mph76%29.53 "HgN/A
11:20 AM41 °FScattered clouds.15 mph81%29.53 "HgN/A
10:20 AM39 °FScattered clouds.13 mph87%29.50 "HgN/A
9:20 AM37 °FScattered clouds.13 mph87%29.50 "HgN/A
8:20 AM37 °FPartly sunny.13 mph87%29.50 "HgN/A
7:20 AM37 °FPassing clouds.10 mph87%29.47 "HgN/A
6:20 AM37 °FPassing clouds.10 mph87%29.47 "HgN/A
5:20 AM39 °FPassing clouds.10 mph81%29.45 "HgN/A
4:20 AM39 °FPassing clouds.13 mph87%29.45 "HgN/A
3:20 AM41 °FPartly cloudy.14 mph81%29.42 "Hg5 mi
2:20 AM41 °FPartly cloudy.16 mph81%29.42 "Hg5 mi
1:20 AM41 °FPartly cloudy.13 mph87%29.39 "Hg5 mi
12:20 AM41 °FSprinkles. Partly cloudy.26 mph87%29.39 "Hg5 mi
11:20 PM
Wed, Feb 10
41 °FPartly cloudy.17 mph87%29.36 "Hg5 mi
10:20 PM41 °FSprinkles. Partly cloudy.21 mph93%29.33 "Hg5 mi
9:20 PM43 °FPassing clouds.16 mph87%29.30 "HgN/A
8:20 PM43 °FPartly cloudy.17 mph87%29.27 "HgN/A
7:20 PM43 °FSprinkles. Partly cloudy.21 mph81%29.24 "Hg4 mi
6:20 PM43 °FPassing clouds.16 mph87%29.24 "HgN/A
5:20 PM43 °FPartly sunny.14 mph87%29.21 "Hg5 mi
4:20 PM43 °FBroken clouds.12 mph93%29.18 "Hg5 mi
3:49 PM43 °FPartly sunny.14 mph93%29.18 "HgN/A
3:20 PM43 °FBroken clouds.13 mph87%29.18 "HgN/A
2:20 PM43 °FDrizzle. Broken clouds.13 mph87%29.18 "HgN/A
Weather by CustomWeather, © 2016

See weather overviewHow to use our weather pages